UAL1164 KSFO-KLAX

Flight info

Callsign UAL1164
Flight time N/A
Altitude 33000
Route WESLA5 SUSEY EBAYE BURGL IRNMN2
Aircraft B77W/H-SDE1E2E3FGHIJ2J3J4J5M1RWXY/LB1D1

Departure

Time 2026-05-07 22:13
Airport San Francisco International Airport (KSFO)

Arrival

Time N/A
Airport Los Angeles International Airport (KLAX)
Time Latitude Longitude Altitude Speed Heading
2026-05-07 21:37 37.62116 -122.38836 38 ft 0 kts 208°
2026-05-07 22:00 37.62123 -122.38831 38 ft 2 kts 208°
2026-05-07 22:00 37.62136 -122.38822 37 ft 2 kts 208°
2026-05-07 22:01 37.62149 -122.38813 37 ft 2 kts 208°
2026-05-07 22:01 37.62163 -122.38805 37 ft 2 kts 208°
2026-05-07 22:01 37.62172 -122.38799 37 ft 1 kts 208°
2026-05-07 22:01 37.62185 -122.38792 37 ft 2 kts 186°
2026-05-07 22:02 37.62200 -122.38792 37 ft 2 kts 163°
2026-05-07 22:02 37.62213 -122.38801 37 ft 2 kts 142°
2026-05-07 22:02 37.62223 -122.38814 37 ft 1 kts 122°
2026-05-07 22:02 37.62226 -122.38820 37 ft 0 kts 117°
2026-05-07 22:04 37.62224 -122.38814 37 ft 3 kts 117°
2026-05-07 22:04 37.62201 -122.38759 37 ft 10 kts 119°
2026-05-07 22:04 37.62158 -122.38662 38 ft 13 kts 117°
2026-05-07 22:04 37.62123 -122.38547 38 ft 13 kts 103°
2026-05-07 22:05 37.62112 -122.38515 38 ft 2 kts 125°
2026-05-07 22:05 37.62078 -122.38454 38 ft 8 kts 123°
2026-05-07 22:05 37.62047 -122.38393 38 ft 8 kts 121°
2026-05-07 22:05 37.62018 -122.38326 38 ft 8 kts 118°
2026-05-07 22:06 37.61989 -122.38257 38 ft 9 kts 117°
2026-05-07 22:06 37.61959 -122.38184 38 ft 9 kts 117°
2026-05-07 22:06 37.61927 -122.38107 37 ft 10 kts 118°
2026-05-07 22:06 37.61898 -122.38038 37 ft 11 kts 117°
2026-05-07 22:07 37.61895 -122.38029 37 ft 11 kts 117°
2026-05-07 22:07 37.61860 -122.37939 36 ft 11 kts 116°
2026-05-07 22:07 37.61836 -122.37875 35 ft 12 kts 114°
2026-05-07 22:08 37.61801 -122.37776 34 ft 13 kts 114°
2026-05-07 22:08 37.61762 -122.37662 32 ft 14 kts 112°
2026-05-07 22:09 37.61725 -122.37540 30 ft 15 kts 111°
2026-05-07 22:09 37.61678 -122.37413 28 ft 16 kts 117°
2026-05-07 22:09 37.61624 -122.37285 26 ft 16 kts 118°
2026-05-07 22:09 37.61568 -122.37155 25 ft 17 kts 120°
2026-05-07 22:10 37.61507 -122.37024 23 ft 16 kts 121°
2026-05-07 22:10 37.61464 -122.36934 22 ft 8 kts 122°
2026-05-07 22:10 37.61448 -122.36904 21 ft 5 kts 126°
2026-05-07 22:10 37.61432 -122.36877 21 ft 9 kts 126°
2026-05-07 22:11 37.61375 -122.36791 21 ft 15 kts 126°
2026-05-07 22:11 37.61313 -122.36647 20 ft 21 kts 118°
2026-05-07 22:11 37.61237 -122.36465 19 ft 24 kts 118°
2026-05-07 22:11 37.61157 -122.36276 19 ft 23 kts 118°
2026-05-07 22:12 37.61082 -122.36101 19 ft 19 kts 118°
2026-05-07 22:12 37.61060 -122.35947 18 ft 17 kts 64°
2026-05-07 22:12 37.61139 -122.35876 18 ft 9 kts 28°
2026-05-07 22:12 37.61197 -122.35905 19 ft 11 kts 298°
2026-05-07 22:13 37.61285 -122.36102 19 ft 59 kts 299°
2026-05-07 22:13 37.61623 -122.36913 23 ft 144 kts 298°
2026-05-07 22:13 37.62158 -122.38202 502 ft 179 kts 297°
2026-05-07 22:13 37.62716 -122.39542 1688 ft 174 kts 299°
2026-05-07 22:14 37.63247 -122.40755 2319 ft 185 kts 300°
2026-05-07 22:14 37.63284 -122.40839 2357 ft 186 kts 300°
2026-05-07 22:15 37.63933 -122.42316 3045 ft 201 kts 299°
2026-05-07 22:15 37.64191 -122.42904 3319 ft 206 kts 299°
2026-05-07 22:15 37.64839 -122.44381 3997 ft 220 kts 299°
2026-05-07 22:15 37.65606 -122.46130 4763 ft 234 kts 298°
2026-05-07 22:16 37.66395 -122.47932 5710 ft 240 kts 298°
2026-05-07 22:16 37.67050 -122.49909 6486 ft 252 kts 279°
2026-05-07 22:16 37.66935 -122.52128 7144 ft 268 kts 251°
2026-05-07 22:16 37.65879 -122.54057 8059 ft 275 kts 220°
2026-05-07 22:17 37.64142 -122.55041 8982 ft 284 kts 189°
2026-05-07 22:17 37.62167 -122.54737 9873 ft 293 kts 162°
2026-05-07 22:17 37.60270 -122.53760 10741 ft 302 kts 158°
2026-05-07 22:17 37.58311 -122.52674 11384 ft 319 kts 158°
2026-05-07 22:18 37.56219 -122.51506 12051 ft 334 kts 158°
2026-05-07 22:18 37.51781 -122.49026 13361 ft 364 kts 157°
2026-05-07 22:18 37.49474 -122.47570 14015 ft 379 kts 148°
2026-05-07 22:19 37.47411 -122.45511 14812 ft 388 kts 136°
2026-05-07 22:19 37.45546 -122.42993 15721 ft 394 kts 133°
2026-05-07 22:19 37.43714 -122.40435 16600 ft 399 kts 132°
2026-05-07 22:19 37.41855 -122.37858 17464 ft 404 kts 132°
2026-05-07 22:20 37.39940 -122.35222 18291 ft 410 kts 132°
2026-05-07 22:20 37.38000 -122.32564 19152 ft 414 kts 132°
2026-05-07 22:20 37.36041 -122.29890 19983 ft 419 kts 133°
2026-05-07 22:20 37.34068 -122.27203 20767 ft 424 kts 133°
2026-05-07 22:21 37.32084 -122.24506 21544 ft 428 kts 133°
2026-05-07 22:21 37.30049 -122.21747 22298 ft 433 kts 133°
2026-05-07 22:21 37.27985 -122.18951 23060 ft 436 kts 133°
2026-05-07 22:21 37.26185 -122.16515 23733 ft 439 kts 133°
2026-05-07 22:22 37.24108 -122.13708 24473 ft 443 kts 132°
2026-05-07 22:22 37.22029 -122.10902 25170 ft 447 kts 133°
2026-05-07 22:22 37.19888 -122.08013 25816 ft 452 kts 133°
2026-05-07 22:22 37.17727 -122.05102 26462 ft 457 kts 133°
2026-05-07 22:23 37.15563 -122.02189 27100 ft 463 kts 133°
2026-05-07 22:23 37.13368 -121.99237 27751 ft 467 kts 133°
2026-05-07 22:23 37.11130 -121.96230 28420 ft 472 kts 133°
2026-05-07 22:23 37.08904 -121.93243 29051 ft 476 kts 133°
2026-05-07 22:24 37.06632 -121.90195 29772 ft 478 kts 133°
2026-05-07 22:24 37.04371 -121.87166 30656 ft 476 kts 133°
2026-05-07 22:24 37.02131 -121.84168 31554 ft 472 kts 133°
2026-05-07 22:24 36.99900 -121.81186 32343 ft 470 kts 133°
2026-05-07 22:25 36.97670 -121.78207 32944 ft 472 kts 132°
2026-05-07 22:25 36.95418 -121.75201 33070 ft 475 kts 133°
2026-05-07 22:25 36.93169 -121.72201 33074 ft 472 kts 132°
2026-05-07 22:26 36.88686 -121.66232 33071 ft 470 kts 132°
2026-05-07 22:26 36.84190 -121.60255 33068 ft 468 kts 132°
2026-05-07 22:27 36.79736 -121.54346 33078 ft 470 kts 132°
2026-05-07 22:27 36.75276 -121.48440 33086 ft 467 kts 132°
2026-05-07 22:28 36.70822 -121.42551 33078 ft 467 kts 132°
2026-05-07 22:28 36.66375 -121.36684 33078 ft 467 kts 132°
2026-05-07 22:29 36.61903 -121.30794 33082 ft 466 kts 133°
2026-05-07 22:29 36.57441 -121.24926 33081 ft 465 kts 133°
2026-05-07 22:30 36.52990 -121.19085 33094 ft 465 kts 133°
2026-05-07 22:30 36.48559 -121.13280 33096 ft 464 kts 133°
2026-05-07 22:31 36.44112 -121.07464 33097 ft 466 kts 133°
2026-05-07 22:31 36.39790 -121.01475 33082 ft 464 kts 130°
2026-05-07 22:32 36.35601 -120.95396 33069 ft 464 kts 130°
2026-05-07 22:32 36.31391 -120.89324 33063 ft 465 kts 130°
2026-05-07 22:33 36.27173 -120.83265 33068 ft 465 kts 130°
2026-05-07 22:33 36.22942 -120.77207 33070 ft 466 kts 130°
2026-05-07 22:34 36.18708 -120.71159 33076 ft 466 kts 130°
2026-05-07 22:34 36.14453 -120.65094 33067 ft 464 kts 130°
2026-05-07 22:35 36.10245 -120.59109 33073 ft 464 kts 130°
2026-05-07 22:35 36.06000 -120.53081 33082 ft 464 kts 129°
2026-05-07 22:36 36.01761 -120.47073 33091 ft 465 kts 129°
2026-05-07 22:36 35.97523 -120.41077 33092 ft 466 kts 129°
2026-05-07 22:37 35.93246 -120.35037 33064 ft 466 kts 129°
2026-05-07 22:37 35.88956 -120.28992 33054 ft 465 kts 131°
2026-05-07 22:38 35.83953 -120.23896 33049 ft 466 kts 147°